GFSNGP_700_rhum_234.txt.gz
RH
57 51 93 97 96 96 95 98 97 98 96 98 97 97 97 97 97 89 93 94 96 97 94 94 93 94 98 96 97 99 100 100 100 100 100 100 100 100 99 100 100 100 99 97
38 44 55 92 89 90 91 92 96 97 97 97 98 97 97 97 96 96 95 92 96 91 91 95 89 91 88 90 92 96 97 97 98 100 100 100 100 100 99 99 100 96 100 98
62 46 57 78 96 96 96 95 96 95 97 98 96 96 96 94 93 92 88 82 80 62 45 44 41 40 31 32 46 48 53 77 90 95 96 97 98 97 97 99 99 100 99 100
68 54 91 95 96 97 96 98 96 97 96 97 96 96 95 98 93 90 84 79 81 82 67 47 20 18 26 21 21 19 28 28 28 35 52 58 82 84 95 96 97 98 94 87
72 71 75 73 87 94 97 97 96 96 94 96 98 93 76 90 88 85 82 73 60 34 18 16 15 14 12 11 10 10 11 10 10 12 13 16 18 40 42 36 69 64 82 57
83 79 94 85 78 91 94 92 95 92 60 55 54 39 36 40 38 34 27 20 17 15 12 11 10 8 8 7 6 6 7 9 9 8 8 7 6 7 10 22 25 32 30 24
88 95 91 100 94 84 86 95 91 58 41 34 25 32 30 22 17 14 12 10 10 10 8 7 6 6 6 5 5 5 5 6 6 6 6 6 5 4 5 6 7 10 18 27
83 70 77 76 64 70 91 97 87 43 26 20 17 17 15 13 12 10 8 7 6 5 5 7 10 13 16 16 11 8 6 5 6 7 7 6 5 4 4 3 3 4 6 7
60 55 74 72 92 99 92 72 54 28 16 16 15 14 11 10 9 8 8 9 11 12 16 17 16 18 18 21 26 29 27 21 14 7 6 6 6 6 6 5 4 4 4 3
51 43 42 42 48 64 70 74 65 45 19 16 15 13 12 12 11 9 9 9 10 10 10 12 15 18 22 19 32 40 41 41 39 35 21 13 10 7 4 4 4 4 4 3
64 53 38 47 54 62 68 79 86 44 25 21 19 16 14 12 11 10 10 10 10 10 9 10 18 22 24 36 44 45 47 48 48 48 44 37 30 24 21 14 7 4 3 3
74 77 61 52 56 76 89 93 81 39 36 33 30 27 26 26 24 22 20 19 18 17 15 13 14 32 46 52 56 56 59 63 62 55 50 45 42 39 38 33 28 22 14 7
78 75 66 56 81 91 90 81 54 40 43 45 45 42 39 34 30 27 26 25 25 25 23 20 15 21 44 53 60 69 69 71 69 71 73 65 58 53 40 42 40 31 30 28
73 61 42 57 88 94 95 77 58 48 45 43 41 39 36 33 31 32 32 32 33 34 32 29 22 16 29 51 53 65 74 77 80 79 79 76 77 71 61 56 56 58 64 64
65 42 44 45 61 73 72 64 54 50 51 50 48 45 43 42 42 39 38 38 39 42 42 40 31 19 28 54 50 56 72 77 82 85 82 80 79 74 72 70 62 50 43 50
48 35 35 38 43 50 52 52 51 51 53 54 53 52 50 48 46 44 41 39 38 39 46 47 43 26 21 49 50 52 72 76 81 80 73 78 80 74 75 78 69 59 58 63
43 37 45 48 47 47 49 53 51 47 42 38 37 36 37 37 38 42 48 50 46 43 53 54 52 37 24 58 53 53 74 80 86 79 76 84 89 88 98 96 86 82 86 98
50 52 59 61 62 67 65 53 40 34 30 26 20 15 12 14 19 27 36 41 43 46 60 66 59 45 29 60 57 58 78 90 92 91 89 97 90 96 86 92 88 90 96 96
65 70 73 71 74 54 18 10 8 7 7 6 5 5 6 7 10 15 20 40 56 60 71 75 67 51 32 55 61 60 75 86 89 88 89 92 91 97 98 96 92 93 94 96
79 81 80 78 45 14 9 7 5 4 3 3 3 3 4 6 11 50 51 54 96 98 97 90 75 58 37 50 68 61 70 87 89 93 91 96 95 96 95 91 99 97 95 95
72 75 52 27 18 11 8 5 4 4 3 4 4 5 5 5 6 10 26 51 99 100 91 92 88 67 44 50 75 63 68 88 86 96 93 92 96 100 98 96 97 96 100 99
36 29 25 20 13 10 7 5 4 4 3 4 5 7 11 26 46 32 23 85 100 91 71 66 77 78 50 53 85 67 68 88 82 94 96 95 95 96 96 98 97 97 92 88
52 48 33 18 13 10 7 5 4 4 4 5 7 10 21 76 95 90 85 99 99 77 62 52 47 75 63 61 90 74 68 92 75 91 96 96 95 96 96 95 96 96 97 98
80 70 62 26 14 11 7 5 4 4 5 6 12 18 24 31 51 62 60 58 60 70 63 52 46 53 78 80 94 82 75 94 65 80 96 96 96 96 99 98 97 97 96 96
88 81 81 48 14 11 7 5 5 5 6 9 18 30 37 43 45 49 54 64 69 63 58 57 60 91 96 98 98 92 84 94 63 58 93 95 95 96 96 97 98 99 97 97
96 98 96 51 16 11 6 5 4 5 7 12 20 28 35 38 44 54 72 82 88 91 95 96 100 97 98 100 98 97 83 94 73 56 52 84 87 63 93 95 96 94 73 59
97 100 96 34 15 10 7 5 4 5 7 11 18 24 27 35 43 57 79 88 91 95 100 100 98 97 98 98 98 98 97 94 94 62 54 47 46 57 41 44 63 92 80 34

GFSNGP_700_rhum_237.txt.gz
RH
68 59 93 97 96 94 96 98 94 97 95 97 97 97 96 96 97 95 93 89 88 90 94 94 93 92 95 97 97 100 100 99 100 100 100 99 98 100 99 99 100 100 99 100
46 61 85 84 89 91 93 96 95 92 95 97 97 95 93 92 85 81 79 60 32 42 51 75 86 81 40 54 85 95 97 96 97 100 98 100 100 98 100 100 99 91 98 100
68 64 76 78 95 97 93 96 97 94 97 96 94 92 95 96 89 88 89 88 60 21 16 13 16 20 26 31 18 33 60 78 77 88 93 95 98 99 100 100 100 100 100 94
77 62 79 98 95 97 93 95 94 94 96 96 96 96 87 80 76 67 48 26 19 16 14 11 7 5 5 4 6 5 5 13 47 49 44 53 70 90 96 96 98 100 98 94
84 77 71 83 94 96 94 95 93 78 60 56 68 46 24 22 20 17 16 14 11 9 8 8 8 7 6 4 4 4 3 4 4 6 25 28 35 30 46 59 84 88 91 100
86 83 82 89 96 91 97 96 91 75 33 23 19 17 15 14 14 15 13 11 10 8 8 9 8 8 11 12 10 10 6 4 3 4 4 4 4 7 15 9 31 35 74 67
67 92 83 80 74 63 80 92 90 66 20 18 17 20 21 18 15 13 13 13 16 21 20 15 10 8 9 11 13 14 15 15 19 10 7 4 4 4 3 4 4 5 7 17
61 69 81 47 57 86 99 94 86 59 22 18 16 15 14 13 13 12 14 16 18 16 10 9 8 9 9 10 11 12 12 17 22 22 22 21 10 5 3 4 4 4 3 4
52 53 51 54 58 66 75 78 82 64 31 24 22 19 16 15 15 14 13 12 11 9 10 10 9 8 8 10 16 23 28 28 27 28 29 30 28 25 12 6 3 2 3 3
54 48 49 50 58 67 80 89 80 58 31 33 29 28 28 25 24 22 21 20 18 19 18 16 15 13 11 10 10 13 24 34 37 37 36 38 36 31 26 25 17 5 2 2
58 59 53 56 40 68 79 94 79 61 36 37 36 36 37 35 32 29 26 25 24 22 20 20 20 18 16 15 13 12 19 34 42 44 46 44 45 44 42 37 32 26 17 8
67 75 70 56 40 37 58 85 84 54 42 43 43 42 39 37 35 33 31 28 26 25 23 22 23 23 22 21 19 15 14 28 43 48 48 49 48 45 45 45 46 40 32 26
71 69 63 41 38 42 60 74 75 58 48 45 44 42 40 39 37 35 32 30 34 32 31 29 28 28 26 23 25 20 17 24 35 48 47 48 50 51 47 50 56 57 57 50
66 64 50 36 37 40 51 58 55 50 46 46 45 43 41 39 37 36 36 36 34 34 34 34 35 39 41 39 35 25 23 39 42 52 52 51 54 54 55 51 48 52 59 59
69 63 38 33 36 39 43 46 46 47 48 48 45 41 38 35 34 34 33 32 31 30 32 37 39 39 37 38 39 34 24 42 48 62 66 63 61 61 60 55 52 54 57 61
55 51 36 41 51 54 57 60 61 58 48 36 28 23 21 19 15 13 11 11 13 17 26 31 38 41 39 36 40 41 26 42 50 66 71 73 74 71 67 62 60 65 55 43
56 52 47 54 63 67 67 63 36 13 8 7 6 5 4 4 4 4 4 4 7 10 19 30 38 46 51 52 54 44 29 51 54 71 76 81 77 75 72 68 71 67 54 56
62 58 61 69 74 73 66 33 12 8 6 5 4 3 3 3 3 4 4 4 7 13 46 59 79 72 75 71 60 40 40 58 58 73 79 84 87 92 83 86 91 92 88 84
68 70 74 79 79 63 31 14 9 7 5 4 4 3 3 4 4 4 4 4 11 29 64 85 89 86 84 77 59 38 60 66 65 78 84 91 92 95 94 98 93 84 92 96
66 70 65 59 34 22 15 11 8 6 5 4 4 4 4 5 7 12 17 9 10 34 91 90 79 74 80 81 57 47 79 69 72 77 85 92 90 91 92 85 88 95 97 95
65 61 36 34 32 20 14 12 8 6 5 4 4 4 5 7 12 34 56 54 59 90 96 77 62 52 58 78 63 59 90 72 77 75 87 92 90 94 95 95 95 95 87 98
73 53 61 67 66 42 17 12 8 6 5 5 5 5 8 13 15 22 45 57 66 80 88 85 72 61 52 46 70 75 97 75 84 70 85 97 95 94 94 96 97 94 84 96
80 84 82 78 79 75 24 13 9 6 5 5 5 6 10 20 24 25 31 45 49 51 53 52 54 56 50 46 82 94 98 82 89 67 82 97 96 95 94 95 98 97 96 97
89 87 89 92 93 89 34 12 8 6 5 6 6 7 9 15 26 29 43 54 73 66 68 57 60 65 82 97 98 100 97 91 90 64 69 96 96 97 96 95 96 95 95 96
94 93 93 93 94 93 33 12 8 6 5 6 8 13 16 21 25 33 47 67 75 81 84 88 95 98 98 98 99 99 99 95 95 64 60 93 91 94 97 96 96 96 98 99
96 98 97 99 95 92 28 12 13 11 5 6 7 14 17 20 29 32 47 68 78 83 86 93 96 96 97 98 98 98 99 97 97 74 62 67 94 70 86 97 96 96 96 96
94 92 97 92 100 98 37 27 43 15 5 5 7 11 12 14 20 27 29 54 72 81 85 88 91 93 93 97 98 96 98 97 96 96 72 63 64 76 66 88 95 96 82 62

GFSNGP_700_rhum_240.txt.gz
RH
82 72 88 99 96 92 96 96 95 97 95 96 95 93 98 88 80 55 26 19 15 30 43 43 54 85 88 86 96 97 98 100 100 100 99 99 99 98 84 97 99 99 99 93
77 60 77 96 100 89 88 96 95 95 95 96 91 80 70 53 32 21 19 17 13 8 7 11 18 20 24 65 76 67 88 99 96 99 100 99 100 100 100 93 96 100 99 99
57 60 62 74 95 97 91 86 97 98 94 93 68 39 23 19 16 16 15 13 11 8 7 7 6 6 5 6 9 36 50 55 68 91 95 96 99 97 100 99 98 100 100 100
71 55 62 94 96 95 95 95 93 67 33 44 65 83 20 13 13 12 13 12 12 16 19 16 12 9 8 6 4 5 5 14 28 24 56 62 85 96 94 96 97 98 100 100
74 52 67 73 95 96 97 99 78 60 46 19 24 88 34 12 11 13 15 19 26 26 18 12 9 8 7 8 10 11 8 10 8 5 15 18 34 60 70 91 94 91 87 98
88 54 61 81 98 94 96 91 97 41 19 16 14 48 17 14 13 14 16 20 21 15 11 9 8 8 9 10 12 14 11 10 10 12 11 8 7 3 13 21 31 80 67 93
86 79 70 78 76 86 71 92 84 50 23 19 17 16 17 17 16 13 12 12 11 10 8 8 9 8 8 7 7 9 11 18 22 22 22 20 21 18 8 3 3 4 15 33
73 62 59 66 75 84 71 95 77 60 31 24 23 22 21 19 16 18 19 16 15 14 12 12 11 10 10 9 9 9 9 9 16 21 30 29 29 24 20 15 7 3 2 3
58 70 77 51 46 58 62 94 73 63 51 37 35 34 32 32 31 27 23 21 20 17 17 16 17 15 12 12 9 9 10 10 9 10 18 29 33 34 33 28 24 13 8 2
59 69 78 82 96 96 89 80 74 63 57 40 43 45 41 37 33 30 28 25 22 21 21 20 19 19 18 15 13 11 11 11 10 10 9 16 28 37 39 39 38 32 27 18
75 77 71 85 86 41 55 59 76 67 49 44 43 44 43 40 37 35 33 32 29 25 22 23 24 25 24 20 17 14 13 10 9 9 11 10 24 37 37 40 43 39 36 31
70 81 65 77 44 36 40 46 68 82 73 59 55 52 47 43 38 36 34 32 32 34 34 30 29 28 25 26 24 20 18 16 13 10 10 11 11 24 38 40 39 40 45 42
73 61 61 57 38 34 37 45 52 59 59 56 51 46 44 42 40 36 34 31 30 28 28 29 29 30 30 28 26 23 23 20 17 17 16 14 14 22 30 36 39 41 44 47
42 52 63 60 34 31 35 39 43 48 51 52 49 43 36 27 20 16 14 11 10 9 9 9 12 20 24 26 28 30 33 33 31 27 24 22 26 32 40 42 41 43 49 48
39 52 58 47 34 45 53 58 61 64 52 26 13 9 7 6 5 4 4 4 3 3 4 6 9 14 18 21 24 31 37 39 39 34 32 41 46 48 48 50 52 52 51 53
50 52 58 46 42 54 64 68 64 49 20 9 7 6 5 4 4 3 3 3 3 3 4 4 8 14 21 31 34 35 37 42 45 35 44 52 57 56 57 55 57 56 56 56
55 62 59 52 55 64 71 70 53 21 10 8 6 5 5 4 4 4 4 4 4 4 5 9 19 48 63 68 70 69 67 58 42 46 55 60 64 63 60 60 63 69 71 68
63 64 63 63 69 72 68 44 20 12 10 8 6 6 5 5 4 4 4 5 7 7 6 16 55 81 83 79 80 82 70 52 52 70 66 73 74 74 70 71 75 74 63 65
66 71 71 70 65 51 26 18 13 12 10 8 6 6 6 5 4 4 5 8 13 21 18 43 77 74 67 63 69 79 71 51 69 70 74 74 79 81 79 84 81 77 74 72
65 64 64 63 47 40 47 37 15 12 11 9 6 6 5 5 5 6 8 12 17 32 61 76 85 72 57 51 49 52 69 59 77 71 75 71 82 84 87 92 89 88 89 89
66 69 73 64 56 67 70 68 40 13 11 9 6 6 6 5 5 6 10 15 24 30 34 41 54 71 79 75 61 46 67 77 85 80 71 76 91 90 93 95 97 92 83 80
72 68 72 78 81 85 85 81 65 15 10 8 6 6 6 6 7 10 16 21 35 46 40 46 41 45 50 50 49 68 90 91 89 91 66 87 96 95 95 95 97 94 96 89
81 85 89 88 86 86 90 90 67 16 10 8 6 6 7 8 6 9 16 34 51 54 45 47 62 78 86 87 95 97 95 96 97 87 67 93 97 98 97 100 96 97 99 98
84 94 95 94 93 90 93 86 68 16 11 19 13 6 6 9 11 14 22 39 56 62 70 74 81 88 91 95 97 98 97 97 97 83 71 86 96 88 98 99 96 97 96 94
95 99 100 96 92 98 94 90 92 26 33 47 15 5 6 7 7 11 18 33 52 65 73 79 81 84 88 94 98 98 99 98 97 91 76 77 93 85 85 97 98 96 97 96
74 86 100 98 94 91 95 85 95 68 40 43 12 6 6 8 8 10 15 21 40 56 68 72 75 79 84 88 92 95 96 97 98 98 89 78 74 88 89 96 97 96 94 96
50 58 69 86 87 98 96 84 90 72 48 55 18 6 6 8 8 9 12 15 21 30 47 58 62 68 75 81 85 88 91 92 97 98 98 92 78 75 85 88 96 96 93 72

GFSNGP_700_rhum_246.txt.gz
RH
53 79 77 89 84 87 80 92 86 96 77 26 52 76 77 37 20 18 13 10 11 10 10 14 16 17 19 20 48 75 81 90 98 100 99 99 100 100 100 93 87 84 85 81
59 67 74 84 86 85 73 78 76 88 68 33 74 95 60 12 13 19 11 9 9 8 8 7 8 8 9 10 17 26 60 53 81 92 94 98 100 98 100 100 100 98 86 89
56 46 79 82 77 93 98 76 81 71 56 64 59 90 70 27 9 11 11 10 9 9 9 7 7 8 8 7 7 6 7 28 27 40 60 66 94 96 96 100 97 100 100 100
67 72 83 76 78 96 98 86 73 62 59 60 53 63 70 36 9 9 10 13 12 13 12 10 9 9 8 9 6 6 5 5 5 10 13 28 35 43 74 94 99 97 99 95
64 65 76 56 71 72 90 91 86 67 67 66 63 52 60 19 20 18 17 17 18 15 15 15 12 10 9 9 10 9 6 6 5 5 4 5 8 26 27 30 52 92 97 99
73 61 47 52 48 52 82 96 92 77 71 80 73 75 86 31 38 30 30 25 21 19 19 16 16 14 11 10 9 10 9 9 8 7 6 5 4 4 7 18 22 27 47 91
68 69 66 63 56 36 80 81 82 78 76 89 84 89 93 72 45 58 46 40 30 27 25 23 19 19 17 15 14 12 11 13 12 10 10 9 7 6 5 5 8 27 29 24
60 65 57 55 66 70 74 77 77 81 80 90 67 92 97 91 91 58 44 57 41 28 22 19 21 20 21 19 18 16 13 11 11 12 11 11 9 10 8 6 4 4 16 28
65 78 52 67 70 65 80 83 84 95 81 89 76 84 89 94 94 97 95 81 48 29 27 21 19 19 18 18 16 17 18 17 14 12 13 11 10 10 9 8 6 4 4 8
71 66 67 63 69 68 82 70 85 83 83 90 85 86 92 89 88 93 95 99 60 40 9 5 5 4 4 4 4 4 5 6 8 9 9 10 9 8 8 7 6 6 4 3
63 58 71 69 79 88 81 49 88 91 92 92 93 91 95 95 91 89 98 68 57 11 5 4 4 4 3 3 3 3 3 4 5 5 6 6 6 6 6 8 10 8 6 4
61 65 78 75 73 77 76 82 81 86 82 94 88 82 83 81 68 82 38 25 7 5 5 4 4 4 3 3 3 3 2 3 4 4 5 7 8 8 16 18 20 20 17 13
59 58 64 71 62 85 86 82 86 75 73 95 100 100 91 54 37 11 6 7 7 6 4 5 6 5 3 3 3 6 5 4 6 8 8 10 14 17 11 18 24 26 29 26
62 65 69 73 93 89 80 80 89 94 100 97 86 65 27 12 10 7 7 8 8 6 4 4 4 6 6 6 7 9 10 12 15 18 21 22 26 32 36 32 22 19 31 38
64 69 70 75 83 72 84 90 97 95 76 59 28 15 11 11 9 8 8 9 8 5 5 4 5 7 8 13 26 30 25 24 30 35 45 48 48 46 44 43 40 36 35 41
73 76 75 86 88 84 92 90 69 66 57 34 30 14 12 12 10 9 8 9 7 6 5 5 6 7 17 31 45 50 47 46 46 51 64 62 52 49 54 55 56 55 54 49
84 85 88 97 97 96 77 65 66 60 48 46 54 46 12 12 12 10 8 8 6 6 7 8 8 10 14 23 54 75 56 50 48 43 57 64 58 64 68 67 65 62 65 71
76 92 86 64 51 54 61 60 61 60 63 65 65 60 16 12 14 10 8 8 6 8 10 13 18 21 24 22 18 21 50 67 61 52 44 68 84 82 74 76 79 72 76 81
56 66 57 48 50 53 56 59 64 64 66 63 65 38 12 13 15 10 8 7 7 8 16 25 34 49 57 62 57 47 45 50 52 52 78 89 91 80 89 90 89 85 86 85
44 47 50 53 55 58 62 68 72 70 69 70 54 20 12 24 34 14 7 7 7 9 19 34 45 53 60 69 76 84 90 94 93 94 97 96 88 94 96 96 95 96 88 90
50 52 53 56 56 57 65 70 73 80 73 84 78 27 34 49 45 15 7 7 8 9 16 34 47 54 62 69 77 81 89 94 96 97 96 93 95 97 96 96 97 96 94 92
51 55 55 54 58 62 67 68 75 89 82 85 80 71 50 38 45 14 7 8 8 8 12 27 45 55 60 69 76 78 84 90 95 97 97 96 96 96 96 96 95 95 96 95
45 48 48 45 61 64 58 57 66 85 90 84 79 78 72 54 46 36 9 8 7 8 10 17 36 52 58 64 69 74 79 82 89 96 97 96 96 97 97 97 97 96 98 100
46 48 53 60 57 39 44 48 47 64 76 83 86 83 79 62 49 41 21 7 7 8 9 11 18 30 41 51 59 66 72 75 78 89 97 97 96 97 98 98 98 98 100 100
41 40 38 36 38 41 38 40 46 55 68 77 87 86 81 82 61 49 37 10 7 8 9 9 11 13 19 28 36 48 60 67 72 77 87 96 97 96 97 97 96 96 97 97
41 39 38 39 39 36 36 38 46 56 69 94 95 91 88 89 64 50 45 16 7 8 8 9 10 12 13 15 17 20 28 46 61 70 74 81 91 96 96 96 97 96 96 97
41 39 38 34 34 34 33 42 51 67 90 92 96 90 94 88 50 49 48 16 8 8 9 10 10 10 11 13 14 16 18 22 29 43 59 67 76 81 91 96 96 97 96 96